Powrót do katalogu

STARLINK-32649

AktywnyŁącznośćVLEO
NORAD 62305·PAYLOAD·🇺🇸 United States

Wystrzelony Dec 13, 2024 z Vandenberg Space Force Base

Loading…

Następne Przeloty (najbliższe 24 godziny)

TLE

ŚwieżeSource: CelesTrak SupGP

Epoka: Sep 15, 2026, 02:43 UTC

1 62305C 24239E   26258.11368056  .00012980  00000+0  38332-3 0  2588
2 62305  53.1600  30.6365 0001099  86.9989 285.4684 15.34399569    16

Śledź STARLINK-32649 w czasie rzeczywistym z AllMySat

Download on the App Store